This demonstration page uses our WeatherBlox Daily Observations layout. Learn more.

Left ArrowRight Arrow

31.84235, -102.49876

Hourly Observations for March 6, 2022

Temp ( °F °C ) Dew Point ( °F °C ) Humidity (%) Winds ( mph kmh ) Pressure ( in mb ) Visibility ( mi km ) Precip ( " mm )
12:53 am 00:53 Clear 54 12.2 9 -12.8 16 16 S 6 9 29.86 1011 10 16 0.00 0.00
1:53 am 01:53 Clear 56 13.3 23 -5 28 28 S 3 6 29.83 1010 10 16 0.00 0.00
2:53 am 02:53 Clear 54 12.2 24 -4.4 31 31 Calm 29.81 1009 10 16 0.00 0.00
3:53 am 03:53 Clear 54 12.2 31 -0.6 42 42 SSE 6 9 29.77 1008 10 16 0.00 0.00
4:53 am 04:53 Clear 52 11.1 26 -3.3 37 37 ESE 8 13 29.77 1008 10 16 0.00 0.00
5:53 am 05:53 Mostly Cloudy 53 11.7 37 2.8 55 55 SE 9 15 29.76 1008 10 16 0.00 0.00
6:53 am 06:53 Cloudy 58 14.4 50 10 75 75 S 12 19 29.75 1007 10 16 0.00 0.00
7:53 am 07:53 Cloudy 60 15.6 53 11.7 78 78 S 8 13 29.75 1008 8 13 0.00 0.00
8:53 am 08:53 Cloudy with Haze 65 18.3 57 13.9 76 76 S 18 30 29.75 1008 6 10 0.00 0.00
9:41 am 09:41 Partly Cloudy 67 19.4 56 13.3 68 68 SSW 18 30 29.76 1008 9 14 0.00 0.00
9:53 am 09:53 Mostly Sunny 67 19.4 55 12.8 66 66 SSW 17 28 29.77 1008 9 14 0.00 0.00
10:53 am 10:53 Sunny 72 22.2 51 10.6 48 48 SSW 15 24 29.77 1008 10 16 0.00 0.00
11:53 am 11:53 Sunny 77 25 27 -2.8 16 16 W 17 28 29.75 1007 10 16 0.00 0.00
12:53 pm 12:53 Sunny 80 26.7 10 -12.2 7 7 WSW 23 37 29.72 1007 10 16 0.00 0.00
1:53 pm 13:53 Sunny 81 27.2 3 -16.1 5 5 WSW 22 35 29.70 1006 10 16 0.00 0.00
2:53 pm 14:53 Sunny 82 27.8 -1 -18.3 4 4 W 24 39 29.70 1006 10 16 0.00 0.00
3:53 pm 15:53 Sunny 80 26.7 4 -15.6 5 5 WNW 23 37 29.72 1006 10 16 0.00 0.00
4:19 pm 16:19 Sunny 70 21.1 37 2.8 30 30 NNE 20 31 29.71 1006 9 14 0.00 0.00
4:53 pm 16:53 Sunny 68 20 36 2.2 31 31 NNE 14 22 29.78 1009 10 16 0.00 0.00
5:53 pm 17:53 Sunny 65 18.3 35 1.7 33 33 E 7 11 29.82 1010 10 16 0.00 0.00
6:53 pm 18:53 Clear 59 15 34 1.1 39 39 ENE 9 15 29.86 1011 10 16 0.00 0.00
7:53 pm 19:53 Clear 53 11.7 33 0.6 47 47 NE 9 15 29.91 1013 10 16 0.00 0.00
8:53 pm 20:53 Clear 47 8.3 32 0 56 56 ENE 10 17 29.97 1015 10 16 0.00 0.00
9:53 pm 21:53 Clear 45 7.2 33 0.6 63 63 E 14 22 30.01 1016 10 16 0.00 0.00
10:53 pm 22:53 Clear 41 5 31 -0.6 67 67 E 10 17 30.04 1017 10 16 0.00 0.00
11:53 pm 23:53 Clear 38 3.3 29 -1.7 70 70 E 13 20 30.08 1019 10 16 0.00 0.00

Powered by AerisWeather